Location: *
(43.9905°S, 176.4941°W)
Time: 00:53:00
(UTC+00:00)

COSMOS 2487 - Pass Details

Date: 08 December 2019
Orbit: 442 x 448 km, 74.7° (Epoch: 19 January)

Event Time Altitude Azimuth Distance (km) Brightness Sun altitude
Rises 10:06:22 0° 187° (S) 2,492 7.6 -20.1°
Reaches altitude 10° 10:08:53 10° 169° (S) 1,608 6.0 -20.3°
Maximum altitude 10:11:36 20° 119° (ESE) 1,103 4.4 -20.4°
Enters shadow 10:12:04 20° 108° (ESE) 1,120 4.3 -20.5°
